Regional Weather Roundup
Issued by NWS Charleston, SC

Current Version | Previous Version | Graphics & Text | Print | Product List | Glossary On
Versions: 1 2 3 4 5 6 7 8 9 10 11 12 13 14 15 16 17 18 19 20 21 22 23 24 25 26 27 28 29 30 31 32 33 34 35 36 37 38 39 40 41 42 43 44 45 46 47 48 49 50
000
ASUS42 KCHS 301410
RWRCHS

REGIONAL WEATHER ROUNDUP
NATIONAL WEATHER SERVICE CHARLESTON SC
1000 AM EDT SAT AUG 30 2014

NOTE: "FAIR" INDICATES FEW OR NO CLOUDS BELOW 12,000 FEET WITH NO
SIGNIFICANT WEATHER AND/OR OBSTRUCTIONS TO VISIBILITY.

NOT ALL STATIONS ARE QUALITY CONTROLLED BY THE NATIONAL
WEATHER SERVICE. USE DATA WITH CAUTION...ESPECIALLY
DEWPOINT OBSERVATIONS.

SCZ027-030-031-034>040-042>050-301500-
...SOUTH CAROLINA...

CITY           SKY/WX    TMP DP  RH WIND       PRES   REMARKS
N CHARLESTON   MOSUNNY   86  75  69 CALM      30.19R HX  95
WATERFRONT PRK   N/A     84 N/A N/A E6          N/A
FORT JOHNSON   NOT AVBL
MOUNT PLEASANT FAIR      84  79  84 E3        30.19R HX  96
JOHNS ISLAND   MOSUNNY   84  79  84 CALM      30.19R HX  96
PINOPOLIS        N/A     84  75  74 CALM      30.11S HX  92
MONCKS CORNER  NOT AVBL
SUMMERVILLE    FAIR      84  77  79 E3        30.20R HX  94
BEAUFORT MCAS  PTSUNNY   86  76  71 SE9       30.18R HX  96
BEAUFORT ARPT  FAIR      86  77  74 E3        30.17R HX  97
HILTON HEAD IS MOSUNNY   84  77  79 E6        30.19R HX  94
GEORGETOWN     NOT AVBL
WALTERBORO     SUNNY     86  81  84 E5        30.19S HX 102
ORANGEBURG     SUNNY     82  73  74 S5        30.20R
BARNWELL       FAIR      82  75  78 SE6       30.19S
AIKEN          FAIR      84  77  79 SE6       30.23R HX  94
MANNING        FAIR      81  79  94 CALM      30.19S
KINGSTREE      NOT AVBL
COLUMBIA       PTSUNNY   81  72  74 E5        30.19R
SUMTER         CLOUDY    76  76 100 E7        30.19R
FLORENCE       MOSUNNY   82  72  71 NE6       30.20S
MYRTLE BEACH   MOSUNNY   81  75  83 VRB6      30.20R
N MYRTLE BEACH PTSUNNY   84  74  71 CALM      30.19S HX  91

$$

GAZ063-065-086>088-099>101-113>116-118-119-134-136>141-150-301500-
...GEORGIA...

CITY           SKY/WX    TMP DP  RH WIND       PRES   REMARKS
SAVANNAH ARPT  MOSUNNY   86  75  69 E8        30.17R HX  95
HUNTER AAF     MOSUNNY   85  76  74 E7        30.15R HX  93
FORT STEWART   SUNNY     84  75  74 SE5       30.16R HX  92
STATESBORO     NOT AVBL
SYLVANIA       SUNNY     77  71  81 E5        30.18S
CLAXTON        NOT AVBL
THOMSON        SUNNY     84  79  85 CALM      30.22R HX  95
AUGUSTA-BUSH   SUNNY     82  74  76 SE7       30.17S
AUGUSTA-DANIEL PTSUNNY   81  74  79 SE5       30.19R
SWAINSBORO     FAIR      86  79  79 E3        30.17S HX  99
VIDALIA          N/A     84  77  79 E3        30.17R HX  94
ALMA           PTSUNNY   82  74  76 E5        30.16R
WAYCROSS       CLOUDY    85  78  80 CALM      30.17R HX  95
JESUP            N/A     84  77  79 E7        30.17R HX  94
BRUNSWICK      PTSUNNY   86  73  66 S3        30.17R HX  93
SAINT SIMONS   CLOUDY    83  75  77 S6        30.17R HX  90

$$

SCZ027-028-034-036>038-045-046-048>050-GAZ119-141-301500-
...LAKE AND SUPPLEMENTAL COASTAL OBSERVATIONS...

STATION/POSITION TIME  TEMP    WIND        PRES    WAVE   SWELL
                       AIR SEA DIR/SP/G            HT/PER HT/PER/DIR
                 (UTC) (F)     (DEG/KT/KT) (MB)    (FT/S) (FT/S/D)
UPR LAKE MARION  NOT AVBL
WINYAH BAY       1300   80     350/  2     1022.0S
LAKE MURRAY      1300   82     170/  2/  3 1021.7S
ACE BASIN NERRS  1300   80      40/  1     1021.0S
FORT PULASKI     1400   83      70/  7/  9 1021.8R
SAPELO ISLAND    1300   81      40/  2     1021.0S

$$

ANZ835-935-AMZ111-154-330-350-352-354-374-450-454-472-301500-
...C-MAN AND BUOY OBSERVATIONS...

STATION/POSITION TIME  TEMP    WIND        PRES    WAVE   SWELL
                       AIR SEA DIR/SP/G            HT/PER HT/PER/DIR
                 (UTC) (F)     (DEG/KT/KT) (MB)    (FT/S) (FT/S/D)
FOLLY BEACH CMAN 1300   82      70/  7/  8 1022.2R
BUOY 41004       1400   82 83   60/ 10/ 10 1021.6R   3/ 8   3/ 8
BUOY 41008       1400   83 84  110/  6/  8 1021.3R   2/ 8   2/ 90/ 8
5E ST. MARYS GA  1400      84                N/A     2/ 8
FRYING PAN BUOY  NOT AVBL
BUOY 41025       1400   80      40/  8/ 10 1023.1R   3/ 8   3/ 70/ 8
CAPE LOOKOUT NC  1300   80      70/  6/  7 1022.9R
BUOY 41002       1339   77 82  270/  8/ 10 1023.8R   3/ 8   3/130/ 8
BUOY 41010       1400   82 84  190/ 10/ 12 1021.4F   3/ 8   3/100/ 8
BUOY 41012       NOT AVBL
ST AUGUSTINE FL  1400   81      90/  3/  3 1022.0R
CAPERS NEARSHORE 1300   83      80/  8/ 10   N/A
FRIPP NEARSHORE  NOT AVBL


$$



USA.gov is the U.S. government's official web portal to all federal, state and local government web resources and services.